PBO Station Position Time Series. Reference Frame : NAM14
Format Version,1.1.0
4-character ID,PALX
Station name,El_Alamo__MX2010
Begin Date, 2010-09-03
End Date, 2019-10-07
Release Date, 2019-10-08
Reference position, 31.5591175451 North Latitude, -116.0637867472 East Longitude, 1545.47266 meters elevation,
Date, North (mm), East (mm), Vertical (mm), North Std. Deviation (mm), East Std. Deviation (mm),              Vertical Std. Deviation (mm), Quality,
2010-09-03,0.00, 0.00, 0.00, 1.78, 1.62, 7.22, repro,
2010-09-04,0.01, -0.04, 3.90, 1.83, 1.66, 7.33, repro,
2010-09-05,0.74, 0.81, 7.32, 1.80, 1.64, 7.29, repro,
2010-09-06,-0.32, 0.12, 3.53, 1.80, 1.64, 7.29, repro,
2010-09-07,0.37, 0.28, 5.34, 1.78, 1.62, 7.17, repro,
2010-09-08,0.20, 0.69, 4.53, 1.78, 1.62, 7.21, repro,
2010-09-09,1.64, 0.75, -3.55, 1.79, 1.63, 7.23, repro,
2010-09-10,1.22, 0.72, 2.83, 1.79, 1.64, 7.23, repro,
2010-09-11,1.39, -0.57, 2.07, 1.83, 1.69, 7.33, repro,
2010-09-12,0.83, 1.28, 0.56, 1.79, 1.63, 7.20, repro,
2010-09-13,0.96, 1.12, -0.41, 1.78, 1.63, 7.23, repro,
2010-09-14,0.77, -0.35, 1.98, 1.79, 1.63, 7.28, repro,
2010-09-15,0.24, -0.35, 3.31, 1.79, 1.64, 7.27, repro,
2010-09-16,0.38, -0.03, 2.87, 1.79, 1.63, 7.25, repro,
2010-09-17,0.26, -0.17, 3.28, 1.79, 1.63, 7.24, repro,
2010-09-18,0.69, -0.35, 3.97, 1.78, 1.62, 7.22, repro,
2010-09-19,0.53, -0.64, 0.21, 1.78, 1.62, 7.26, repro,
2010-09-20,1.13, 0.10, 8.76, 1.79, 1.63, 7.24, repro,
2010-09-21,0.02, -0.94, 12.91, 1.79, 1.67, 7.41, repro,
2010-09-22,0.41, -0.36, 6.31, 1.81, 1.68, 7.45, repro,
2010-09-23,0.08, -1.58, 5.94, 1.83, 1.62, 7.34, repro,
2010-09-24,0.30, -1.54, -1.54, 1.78, 1.62, 7.18, repro,
2010-09-25,0.05, -0.28, -3.70, 1.78, 1.62, 7.19, repro,
2010-09-26,1.57, -0.62, -0.27, 1.78, 1.63, 7.23, repro,
2010-09-27,0.20, -0.52, -3.66, 1.85, 1.69, 7.33, repro,
2010-09-28,1.15, -2.10, 11.38, 1.86, 1.70, 7.43, repro,
2010-09-29,-0.13, -1.33, 10.41, 1.88, 1.72, 7.58, repro,
2010-09-30,1.09, -0.31, 5.89, 1.87, 1.73, 7.57, repro,
2010-10-01,0.84, -0.74, 10.42, 1.83, 1.65, 7.34, repro,
2010-10-02,-0.50, -2.65, 0.89, 1.85, 1.71, 7.65, repro,
2010-10-03,-1.16, 0.32, 1.67, 1.83, 1.66, 7.37, repro,
2010-10-04,-0.25, -0.81, 3.60, 1.87, 1.66, 7.45, repro,
2010-10-05,0.59, -0.08, -0.67, 1.80, 1.64, 7.30, repro,
2010-10-06,1.07, 0.86, -4.73, 1.78, 1.62, 7.20, repro,
2010-10-07,2.61, -0.59, -7.06, 1.80, 1.63, 7.26, repro,
2010-10-08,0.06, -0.14, 2.07, 1.89, 1.69, 7.53, repro,
2010-10-09,0.61, 0.22, 0.46, 1.85, 1.64, 7.40, repro,
2010-10-10,-1.03, -0.99, 3.43, 1.87, 1.69, 7.51, repro,
2010-10-11,0.68, 0.55, 3.12, 1.97, 1.76, 7.93, repro,
2010-10-12,0.88, -0.32, -4.19, 1.80, 1.63, 7.25, repro,
2010-10-13,0.80, -1.68, -3.96, 1.87, 1.68, 7.43, repro,
2010-10-14,0.40, 0.85, 1.61, 1.81, 1.66, 7.41, repro,
2010-10-15,-0.82, 1.23, 2.13, 1.82, 1.66, 7.45, repro,
2010-10-16,-0.04, 0.00, 10.45, 1.82, 1.64, 7.31, repro,
2010-10-17,0.27, 0.11, 0.89, 1.88, 1.71, 7.43, repro,
2010-10-18,0.50, -1.58, -0.19, 1.87, 1.68, 7.39, repro,
2010-10-19,2.48, 0.24, -1.00, 1.83, 1.67, 7.36, repro,
2010-10-20,1.24, -0.36, -4.73, 1.84, 1.69, 7.42, repro,
2010-10-21,3.01, -0.38, -1.60, 1.85, 1.66, 7.36, repro,
2010-10-22,1.79, -1.34, 3.49, 1.82, 1.64, 7.34, repro,
2010-10-23,0.70, 0.88, -1.77, 1.87, 1.67, 7.46, repro,
2010-10-24,1.94, -0.41, -0.47, 1.85, 1.69, 7.55, repro,
2010-10-25,1.14, -0.51, 3.49, 1.86, 1.67, 7.40, repro,
2010-10-26,1.02, 0.09, 2.52, 1.79, 1.62, 7.22, repro,
2010-10-27,1.12, -1.27, 2.44, 1.81, 1.63, 7.31, repro,
2010-10-28,1.39, 0.08, -3.31, 1.80, 1.62, 7.30, repro,
2010-10-29,1.63, 1.22, -1.35, 1.79, 1.61, 7.18, repro,
2010-10-30,-0.15, -1.69, -0.33, 1.78, 1.60, 7.10, repro,
2010-10-31,0.20, 0.14, -2.63, 1.84, 1.71, 7.41, repro,
2010-11-01,0.42, -0.70, -2.50, 1.89, 1.75, 7.56, repro,
2010-11-02,0.96, -0.45, -3.82, 1.83, 1.64, 7.28, repro,
2010-11-03,0.10, -0.05, -3.78, 1.80, 1.63, 7.28, repro,
2010-11-04,0.09, -1.20, -7.09, 1.79, 1.60, 7.14, repro,
2010-11-05,0.95, -0.35, 0.36, 1.86, 1.67, 7.37, repro,
2010-11-06,1.87, -0.01, -0.59, 1.82, 1.64, 7.29, repro,
2010-11-07,0.88, -0.92, 1.86, 1.83, 1.64, 7.32, repro,
2010-11-08,0.19, -0.31, 4.96, 1.80, 1.62, 7.24, repro,
2010-11-09,0.20, -1.36, 8.58, 1.80, 1.62, 7.20, repro,
2010-11-10,1.31, -1.09, 3.21, 1.82, 1.64, 7.26, repro,
2010-11-11,0.14, -1.45, -1.24, 1.83, 1.63, 7.25, repro,
2010-11-12,-0.58, -1.51, -4.01, 1.79, 1.59, 7.18, repro,
2010-11-13,0.62, -0.74, -4.54, 1.91, 1.70, 7.79, repro,
2010-11-14,0.82, -0.75, 1.75, 1.86, 1.68, 7.50, repro,
2010-11-15,-0.57, 0.62, 4.74, 1.81, 1.64, 7.37, repro,
2010-11-16,-0.14, 0.31, -0.71, 1.89, 1.67, 7.63, repro,
2010-11-17,-0.27, 0.48, -0.17, 1.93, 1.70, 7.74, repro,
2010-11-18,0.07, 0.44, 0.17, 1.86, 1.65, 7.56, repro,
2010-11-19,-0.29, -0.75, 2.32, 1.89, 1.66, 7.63, repro,
2010-11-20,-0.45, -0.35, 1.42, 1.83, 1.63, 7.37, repro,
2010-11-21,-1.20, 0.53, -0.93, 1.90, 1.71, 7.59, repro,
2010-11-22,1.46, -1.44, 1.34, 1.89, 1.71, 7.56, repro,
2010-11-23,-0.46, -0.14, -1.06, 1.81, 1.62, 7.36, repro,
2010-11-24,-0.48, -0.12, 2.42, 1.82, 1.63, 7.40, repro,
2010-11-25,-0.25, -0.86, -1.23, 1.82, 1.62, 7.35, repro,
2010-11-26,1.35, -1.07, -1.94, 1.90, 1.65, 7.66, repro,
2010-11-27,0.68, -0.23, 0.56, 1.86, 1.64, 7.56, repro,
2010-11-28,0.70, 0.61, 1.42, 1.93, 1.66, 7.80, repro,
2010-11-29,-0.30, -0.43, -1.67, 1.85, 1.64, 7.59, repro,
2010-11-30,0.45, -1.32, -3.20, 1.83, 1.63, 7.44, repro,
2010-12-01,0.35, -0.21, -3.80, 1.84, 1.64, 7.50, repro,
2010-12-02,0.89, -0.51, -6.96, 1.83, 1.62, 7.42, repro,
2010-12-03,0.56, 0.94, -2.96, 1.85, 1.63, 7.55, repro,
2010-12-04,-0.40, 0.15, -1.26, 1.87, 1.64, 7.64, repro,
2010-12-05,0.40, 0.42, -3.77, 1.95, 1.66, 7.91, repro,
2010-12-06,-0.31, -0.59, 0.22, 1.87, 1.64, 7.58, repro,
2010-12-07,0.04, -0.61, -4.60, 1.85, 1.67, 7.57, repro,
2010-12-08,1.31, 0.16, -5.91, 1.85, 1.63, 7.52, repro,
2010-12-09,0.66, 0.04, -6.97, 1.84, 1.64, 7.47, repro,
2010-12-10,-0.21, -0.25, -1.58, 1.88, 1.66, 7.69, repro,
2010-12-11,-0.03, -0.85, -0.80, 1.84, 1.63, 7.39, repro,
2010-12-12,-0.54, -1.55, -2.45, 1.86, 1.60, 7.38, repro,
2010-12-13,0.52, -0.77, 0.38, 1.92, 1.61, 7.55, repro,
2010-12-14,1.54, -0.69, -0.90, 1.93, 1.67, 7.72, repro,
2010-12-15,-0.31, -0.21, 8.15, 1.90, 1.66, 7.62, repro,
2010-12-16,0.38, -0.77, 1.27, 1.84, 1.63, 7.41, repro,
2010-12-17,-0.81, -1.13, -3.14, 1.87, 1.63, 7.38, repro,
2010-12-18,-0.85, -0.46, -0.85, 1.81, 1.60, 7.21, repro,
2010-12-19,0.55, 0.36, -3.10, 1.83, 1.62, 7.37, repro,
2010-12-20,-0.88, -2.47, -2.75, 1.90, 1.65, 7.57, repro,
2010-12-21,-1.46, -0.77, -4.68, 1.91, 1.67, 7.68, repro,
2010-12-22,0.34, 0.78, -8.85, 1.92, 1.68, 7.72, repro,
2010-12-23,0.04, -0.68, -3.95, 1.95, 1.73, 7.83, repro,
2010-12-24,0.97, -0.33, -3.25, 1.84, 1.62, 7.42, repro,
2010-12-25,0.37, 0.45, -5.66, 1.82, 1.58, 7.23, repro,
2010-12-26,0.56, -0.36, -4.72, 1.81, 1.58, 7.26, repro,
2010-12-27,1.71, -0.35, -5.13, 1.81, 1.58, 7.25, repro,
2010-12-28,1.88, 0.09, -2.60, 1.86, 1.65, 7.46, repro,
2010-12-29,0.78, 0.16, 1.26, 1.89, 1.68, 7.57, repro,
2010-12-30,-0.98, 2.07, -1.34, 1.86, 1.64, 7.47, repro,
2010-12-31,-0.14, 0.36, -0.29, 1.83, 1.62, 7.40, repro,
2011-01-01,0.40, 0.25, -0.36, 1.84, 1.62, 7.41, repro,
2011-01-02,0.85, 0.89, -5.48, 1.94, 1.72, 7.83, repro,
2011-01-03,1.50, 0.82, -8.13, 1.91, 1.66, 7.65, repro,
2011-01-04,1.30, 0.17, -6.18, 1.90, 1.66, 7.57, repro,
2011-01-05,1.61, 0.06, -7.37, 1.85, 1.64, 7.47, repro,
2011-01-06,0.74, -1.05, -7.99, 1.88, 1.66, 7.48, repro,
2011-01-07,1.42, 0.06, -0.44, 1.86, 1.66, 7.57, repro,
2011-01-08,1.09, 0.98, -3.44, 1.83, 1.63, 7.34, repro,
2011-01-09,0.79, 0.95, -0.76, 1.82, 1.60, 7.33, repro,
2011-01-10,0.58, 0.21, -2.80, 1.87, 1.70, 7.62, repro,
2011-01-11,1.34, -0.63, 0.34, 1.89, 1.72, 7.75, repro,
2011-01-12,1.93, 0.09, -9.00, 1.87, 1.64, 7.42, repro,
2011-01-13,1.36, 0.16, -9.62, 1.85, 1.64, 7.36, repro,
2011-01-14,1.46, -0.58, -3.25, 1.83, 1.64, 7.40, repro,
2011-01-15,1.60, -1.34, -3.82, 1.84, 1.64, 7.44, repro,
2011-01-16,2.24, -1.29, -0.65, 1.86, 1.65, 7.51, repro,
2011-01-17,1.96, -0.44, 5.21, 1.83, 1.60, 7.33, repro,
2011-01-18,0.89, -0.95, 0.95, 1.86, 1.63, 7.48, repro,
2011-01-19,2.35, 0.90, 4.56, 1.87, 1.68, 7.56, repro,
2011-01-20,1.15, -0.88, 0.86, 1.83, 1.64, 7.40, repro,
2011-01-21,1.53, -1.58, -0.51, 1.83, 1.63, 7.42, repro,
2011-01-22,1.68, -1.02, 4.98, 1.88, 1.69, 7.71, repro,
2011-01-23,1.37, -1.09, 3.84, 1.86, 1.67, 7.62, repro,
2011-01-24,2.27, -1.06, 1.19, 1.86, 1.65, 7.64, repro,
2011-01-25,2.24, -0.55, -2.33, 1.85, 1.66, 7.56, repro,
2011-01-26,1.33, -1.70, -0.69, 2.01, 1.80, 8.33, repro,
2011-01-27,0.47, -2.02, 1.47, 1.90, 1.79, 8.04, repro,
2011-01-28,1.99, 0.25, -3.63, 1.82, 1.60, 7.36, repro,
2011-01-29,1.19, 0.32, -3.47, 1.81, 1.58, 7.29, repro,
2011-01-30,2.64, -0.67, -3.83, 1.83, 1.60, 7.42, repro,
2011-01-31,0.88, -0.68, -8.89, 1.88, 1.71, 7.78, repro,
2011-02-01,2.29, -0.63, -8.04, 1.88, 1.70, 7.77, repro,
2011-02-02,1.79, -0.96, -10.42, 1.87, 1.67, 7.65, repro,
2011-02-03,2.27, -0.89, -17.40, 1.86, 1.66, 7.58, repro,
2011-02-04,0.45, -1.33, -5.19, 1.93, 1.75, 7.83, repro,
2011-02-05,1.10, -0.99, -0.32, 1.86, 1.64, 7.53, repro,
2011-02-06,0.14, -0.36, -3.59, 1.95, 1.86, 8.27, repro,
2011-02-07,1.27, -1.70, -3.38, 1.89, 1.70, 7.78, repro,
2011-02-08,1.32, -0.53, -1.55, 1.88, 1.66, 7.70, repro,
2011-02-09,3.00, -0.51, -4.05, 1.83, 1.59, 7.35, repro,
2011-02-10,2.06, -1.06, -5.48, 1.86, 1.66, 7.57, repro,
2011-02-11,2.22, -0.97, -2.78, 1.87, 1.66, 7.63, repro,
2011-02-12,2.52, -0.25, -4.64, 1.87, 1.66, 7.66, repro,
2011-02-13,3.04, -0.65, -0.76, 1.84, 1.68, 7.69, repro,
2011-02-14,2.95, -0.99, -4.84, 1.83, 1.62, 7.49, repro,
2011-02-15,1.26, -1.11, -5.49, 1.92, 1.79, 8.02, repro,
2011-02-16,0.45, -0.95, -4.85, 1.92, 1.79, 8.00, repro,
2011-02-17,1.68, -0.85, 2.64, 1.89, 1.74, 7.93, repro,
2011-02-18,1.58, -0.10, -6.84, 1.86, 1.66, 7.64, repro,
2011-02-19,-0.06, -0.70, -11.91, 1.82, 1.61, 7.38, repro,
2011-02-20,0.60, -0.47, 1.50, 1.81, 1.59, 7.29, repro,
2011-02-21,2.30, -0.17, 0.52, 1.83, 1.58, 7.34, repro,
2011-02-22,2.40, -0.46, -4.13, 1.84, 1.61, 7.42, repro,
2011-02-23,2.21, -0.50, -0.16, 1.89, 1.66, 7.56, repro,
2011-02-24,2.68, 0.98, -1.43, 1.81, 1.58, 7.30, repro,
2011-02-25,1.80, 0.19, 0.21, 1.80, 1.57, 7.24, repro,
2011-02-26,2.30, -0.90, 1.66, 1.82, 1.56, 7.25, repro,
2011-02-27,1.67, 0.04, 0.16, 1.82, 1.57, 7.26, repro,
2011-02-28,2.30, -0.89, -3.96, 1.82, 1.57, 7.28, repro,
2011-03-01,1.34, 0.46, -4.62, 1.81, 1.56, 7.27, repro,
2011-03-02,3.11, -0.57, -4.89, 1.81, 1.58, 7.33, repro,
2011-03-03,1.85, -2.19, -6.71, 1.81, 1.57, 7.28, repro,
2011-03-04,1.81, -0.87, -4.36, 1.83, 1.57, 7.30, repro,
2011-03-05,1.24, -0.90, -4.76, 1.82, 1.57, 7.25, repro,
2011-03-06,1.99, 0.45, -7.54, 1.83, 1.57, 7.31, repro,
2011-03-07,1.60, -0.58, 0.37, 1.81, 1.58, 7.28, repro,
2011-03-08,1.90, -1.41, -1.38, 1.81, 1.56, 7.27, repro,
2011-03-09,1.64, -1.27, -2.88, 1.81, 1.57, 7.30, repro,
2011-03-10,1.83, -1.24, -3.17, 1.83, 1.57, 7.33, repro,
2011-03-11,2.58, 0.15, -0.52, 1.83, 1.57, 7.33, repro,
2011-03-12,2.20, -0.63, -1.45, 1.85, 1.61, 7.41, repro,
2011-03-13,2.83, -1.55, -10.05, 1.87, 1.64, 7.42, repro,
2011-03-14,1.01, -0.39, -4.22, 1.89, 1.65, 7.52, repro,
2011-03-15,0.71, -1.55, -6.70, 2.01, 1.68, 8.04, repro,
2011-03-16,1.70, -1.03, -5.01, 1.93, 1.68, 7.60, repro,
2011-03-17,2.58, -1.14, -2.64, 1.97, 1.69, 7.73, repro,
2011-03-18,1.41, 0.55, -6.88, 2.04, 1.66, 7.95, repro,
2011-03-19,1.04, -1.02, -5.97, 1.96, 1.70, 7.71, repro,
2011-03-20,1.31, -2.12, -2.19, 1.87, 1.60, 7.43, repro,
2011-03-21,1.55, -0.06, -8.23, 1.90, 1.63, 7.54, repro,
2011-03-22,1.65, 0.20, -2.40, 1.92, 1.65, 7.58, repro,
2011-03-23,3.07, -0.21, -2.20, 1.91, 1.63, 7.56, repro,
2011-03-24,2.60, -1.26, 0.36, 1.93, 1.69, 7.62, repro,
2011-03-25,2.41, -0.57, 1.05, 1.94, 1.66, 7.61, repro,
2011-03-26,2.09, -1.32, 0.31, 1.93, 1.67, 7.64, repro,
2011-03-27,2.47, -1.90, -4.75, 1.84, 1.57, 7.35, repro,
2011-03-28,2.21, -1.40, -9.53, 1.84, 1.59, 7.32, repro,
2011-03-29,2.34, -1.47, -4.21, 1.88, 1.65, 7.48, repro,
2011-03-30,2.30, -1.26, -4.99, 1.90, 1.65, 7.58, repro,
2011-03-31,0.82, -1.97, -4.12, 1.98, 1.64, 7.77, repro,
2011-04-01,2.11, -1.47, 0.52, 1.88, 1.60, 7.43, repro,
2011-04-02,0.77, -0.66, -3.25, 1.93, 1.65, 7.61, repro,
2011-04-03,1.77, -0.64, -4.38, 1.90, 1.62, 7.53, repro,
2011-04-04,2.18, -1.52, -2.55, 1.92, 1.65, 7.70, repro,
2011-04-05,1.96, -1.28, 2.96, 1.95, 1.70, 7.85, repro,
2011-04-06,2.46, -0.83, -3.08, 1.87, 1.63, 7.57, repro,
2011-04-07,2.86, -1.04, 1.50, 1.85, 1.57, 7.38, repro,
2011-04-08,0.86, -2.28, -4.79, 1.91, 1.63, 7.61, repro,
2011-04-09,2.96, -0.64, -2.32, 1.91, 1.61, 7.54, repro,
2011-04-10,1.77, -1.47, 1.00, 1.93, 1.67, 7.66, repro,
2011-04-11,2.62, -0.93, -5.56, 1.94, 1.69, 7.75, repro,
2011-04-12,1.24, -0.50, -5.26, 1.88, 1.64, 7.57, repro,
2011-04-13,1.67, -1.04, -4.19, 1.83, 1.57, 7.31, repro,
2011-04-14,2.59, -0.21, -4.53, 1.83, 1.57, 7.32, repro,
2011-04-15,1.61, 0.30, -7.43, 1.83, 1.58, 7.34, repro,
2011-04-16,1.13, -0.01, -6.87, 1.85, 1.60, 7.39, repro,
2011-04-17,1.67, -0.44, 0.03, 1.82, 1.57, 7.27, repro,
2011-04-18,2.15, -1.66, -1.71, 1.82, 1.57, 7.29, repro,
2011-04-19,2.13, -0.52, 4.74, 1.87, 1.60, 7.41, repro,
2011-04-20,1.26, -0.85, 0.23, 1.84, 1.57, 7.37, repro,
2011-04-21,1.37, -2.47, -1.86, 1.87, 1.59, 7.60, repro,
2011-04-22,1.16, -1.54, 2.08, 1.82, 1.57, 7.32, repro,
2011-04-23,1.27, 0.57, 0.53, 1.82, 1.57, 7.30, repro,
2011-04-24,2.08, -1.36, 2.05, 1.83, 1.56, 7.29, repro,
2011-04-25,2.29, -1.23, 1.81, 1.84, 1.56, 7.33, repro,
2011-04-26,0.86, -1.05, 2.11, 1.83, 1.56, 7.32, repro,
2011-04-27,0.95, 0.05, 2.39, 1.81, 1.56, 7.27, repro,
2011-04-28,2.28, -0.83, -2.44, 1.82, 1.57, 7.33, repro,
2011-04-29,2.52, -0.41, -4.94, 1.82, 1.57, 7.33, repro,
2011-04-30,1.39, -0.56, 0.40, 1.85, 1.59, 7.44, repro,
2011-05-01,2.14, -2.02, 0.06, 1.83, 1.56, 7.31, repro,
2011-05-02,0.63, -1.56, -1.20, 1.81, 1.55, 7.24, repro,
2011-05-03,0.72, -1.76, -2.87, 1.83, 1.60, 7.35, repro,
2011-05-04,1.64, -0.34, -3.25, 1.84, 1.60, 7.41, repro,
2011-05-05,1.12, -0.06, -3.05, 1.86, 1.58, 7.40, repro,
2011-05-06,0.71, 0.16, -0.07, 1.86, 1.58, 7.41, repro,
2011-05-07,1.38, -0.65, 5.20, 1.85, 1.59, 7.42, repro,
2011-05-08,0.83, -0.01, 5.79, 1.83, 1.59, 7.37, repro,
2011-05-09,1.86, -1.23, 3.84, 1.83, 1.59, 7.37, repro,
2011-05-10,1.59, -0.66, 2.88, 1.83, 1.60, 7.40, repro,
2011-05-11,1.35, -0.77, 2.37, 1.84, 1.59, 7.40, repro,
2011-05-12,2.26, -0.19, -2.69, 1.82, 1.57, 7.34, repro,
2011-05-13,0.99, 0.58, -2.18, 1.83, 1.56, 7.31, repro,
2011-05-14,0.37, -1.09, 0.63, 1.85, 1.64, 7.54, repro,
2011-05-15,0.24, -1.88, 0.73, 1.84, 1.59, 7.37, repro,
2011-05-16,1.15, -0.71, -2.67, 1.84, 1.60, 7.40, repro,
2011-05-17,0.21, -1.58, 0.37, 1.84, 1.60, 7.44, repro,
2011-05-18,0.81, 0.14, 1.30, 1.87, 1.66, 7.65, repro,
2011-05-19,1.96, -0.95, 1.24, 1.93, 1.71, 7.73, repro,
2011-05-20,0.79, -0.54, 1.11, 1.85, 1.59, 7.38, repro,
2011-05-21,1.39, 0.80, -1.90, 1.85, 1.64, 7.54, repro,
2011-05-22,1.12, -0.64, 1.73, 1.84, 1.60, 7.41, repro,
2011-05-23,2.08, -0.96, 1.49, 1.85, 1.61, 7.46, repro,
2011-05-24,0.71, -0.76, -1.87, 1.89, 1.65, 7.66, repro,
2011-05-25,1.22, -0.10, 0.08, 1.91, 1.70, 7.67, repro,
2011-05-26,1.45, -0.96, -0.71, 1.86, 1.64, 7.53, repro,
2011-05-27,2.51, -0.55, -2.13, 1.86, 1.64, 7.60, repro,
2011-05-28,2.53, -0.48, 0.92, 1.86, 1.64, 7.56, repro,
2011-05-29,2.06, -1.57, 5.69, 1.94, 1.72, 7.79, repro,
2011-05-30,1.41, -1.23, 2.75, 1.88, 1.65, 7.64, repro,
2011-05-31,1.36, -1.77, 5.54, 1.85, 1.59, 7.37, repro,
2011-06-01,1.94, -0.43, -1.37, 1.86, 1.63, 7.53, repro,
2011-06-02,2.20, -0.46, 2.28, 1.86, 1.63, 7.54, repro,
2011-06-03,1.97, -0.86, 5.06, 1.85, 1.59, 7.43, repro,
2011-06-04,1.74, -1.59, -2.64, 1.90, 1.64, 7.61, repro,
2011-06-05,0.77, -1.42, -6.44, 1.84, 1.58, 7.36, repro,
2011-06-06,0.72, -2.99, 4.22, 1.84, 1.59, 7.37, repro,
2011-06-07,2.49, -1.25, 4.73, 1.83, 1.58, 7.38, repro,
2011-06-08,2.10, -0.98, 0.23, 1.84, 1.58, 7.38, repro,
2011-06-09,1.54, -0.08, 3.57, 1.85, 1.60, 7.45, repro,
2011-06-10,2.21, -1.51, 3.69, 1.85, 1.60, 7.45, repro,
2011-06-11,1.84, -1.08, 5.00, 1.84, 1.59, 7.39, repro,
2011-06-12,1.87, -1.51, 8.36, 1.83, 1.59, 7.37, repro,
2011-06-13,3.04, -2.14, 7.18, 1.85, 1.59, 7.41, repro,
2011-06-14,2.17, -1.22, 6.75, 1.85, 1.59, 7.41, repro,
2011-06-15,2.32, -0.96, 1.60, 1.86, 1.61, 7.49, repro,
2011-06-16,2.19, -1.28, 5.89, 1.85, 1.60, 7.42, repro,
2011-06-17,2.89, -1.56, 7.98, 1.84, 1.60, 7.43, repro,
2011-06-18,2.86, -1.53, 1.75, 1.84, 1.60, 7.43, repro,
2011-06-19,1.88, -1.59, 2.58, 1.85, 1.60, 7.44, repro,
2011-06-20,1.96, -2.06, -0.25, 1.85, 1.60, 7.40, repro,
2011-06-21,1.98, -1.55, 5.66, 1.86, 1.60, 7.43, repro,
2011-06-22,1.94, -1.07, 5.81, 1.90, 1.67, 7.66, repro,
2011-06-23,2.79, -1.98, 4.01, 1.85, 1.59, 7.39, repro,
2011-06-24,3.22, -1.53, 7.70, 1.84, 1.60, 7.39, repro,
2011-06-25,1.82, -2.13, 5.02, 1.85, 1.60, 7.41, repro,
2011-06-26,2.29, -2.42, 7.68, 1.85, 1.61, 7.46, repro,
2011-06-27,3.48, -3.35, 1.05, 1.86, 1.60, 7.46, repro,
2011-06-28,2.31, -2.97, 9.21, 1.86, 1.59, 7.42, repro,
2011-06-29,1.11, -2.58, 5.18, 1.86, 1.59, 7.41, repro,
2011-06-30,3.07, -2.51, 2.07, 1.85, 1.59, 7.41, repro,
2011-07-01,2.81, -2.04, 2.36, 1.85, 1.60, 7.44, repro,
2011-07-02,1.15, -2.46, 4.67, 1.85, 1.60, 7.42, repro,
2011-07-03,1.50, -3.20, 7.57, 1.86, 1.60, 7.46, repro,
2011-07-04,0.14, -4.03, 14.98, 1.87, 1.63, 7.54, repro,
2011-07-05,2.26, -2.72, -0.32, 1.99, 1.76, 8.10, repro,
2011-07-06,1.78, -1.97, 6.64, 1.93, 1.64, 7.77, repro,
2011-07-07,-1.56, -2.72, 1.60, 2.00, 1.77, 8.46, repro,
2011-07-08,5.10, -1.38, 1.98, 1.92, 1.66, 7.80, repro,
2011-07-09,2.31, -3.37, 10.99, 1.90, 1.60, 7.62, repro,
2011-07-10,0.44, -1.41, 6.68, 1.91, 1.63, 7.77, repro,
2011-07-11,3.30, -0.72, -2.15, 1.89, 1.61, 7.67, repro,
2011-07-12,3.33, -1.93, -3.97, 1.88, 1.61, 7.62, repro,
2011-07-13,1.37, -1.80, -1.37, 1.92, 1.65, 7.75, repro,
2011-07-14,2.20, -1.70, -0.59, 1.90, 1.61, 7.65, repro,
2011-07-15,2.86, -2.46, -0.02, 1.89, 1.61, 7.64, repro,
2011-07-16,1.99, -4.38, 3.50, 1.88, 1.60, 7.59, repro,
2011-07-17,2.81, -2.25, -0.64, 1.89, 1.61, 7.63, repro,
2011-07-18,1.02, -0.03, -4.36, 1.89, 1.61, 7.62, repro,
2011-07-19,2.85, -0.55, 0.32, 1.90, 1.61, 7.63, repro,
2011-07-20,2.61, -0.81, 4.44, 1.89, 1.63, 7.62, repro,
2011-07-21,2.03, -1.68, 3.45, 1.88, 1.61, 7.60, repro,
2011-07-22,0.90, -1.55, -2.44, 1.91, 1.64, 7.75, repro,
2011-07-23,2.11, -1.88, -0.87, 1.89, 1.60, 7.58, repro,
2011-07-24,3.23, -1.91, -5.10, 1.90, 1.62, 7.64, repro,
2011-07-25,2.10, -1.10, 1.79, 1.88, 1.61, 7.58, repro,
2011-07-26,2.30, -1.32, 3.22, 1.91, 1.66, 7.75, repro,
2011-07-27,2.18, -2.09, 1.29, 1.90, 1.60, 7.62, repro,
2011-07-28,1.87, -2.34, 4.88, 1.90, 1.63, 7.69, repro,
2011-07-29,1.61, -1.18, -3.74, 1.90, 1.61, 7.66, repro,
2011-07-30,3.23, -2.56, 2.83, 1.90, 1.64, 7.72, repro,
2011-07-31,1.78, -2.90, 10.06, 1.89, 1.62, 7.66, repro,
2011-08-01,1.55, -1.06, -0.11, 1.88, 1.61, 7.62, repro,
2011-08-02,1.56, -3.13, 0.02, 1.95, 1.63, 7.98, repro,
2011-08-03,1.55, -0.70, -0.88, 1.96, 1.72, 8.04, repro,
2011-08-04,2.03, -1.32, -0.25, 1.89, 1.61, 7.62, repro,
2011-08-05,1.29, -1.88, 9.29, 1.88, 1.60, 7.57, repro,
2011-08-06,1.78, -1.75, 4.67, 1.91, 1.64, 7.75, repro,
2011-08-07,1.47, -2.06, 5.47, 1.90, 1.62, 7.69, repro,
2011-08-08,2.62, -1.96, -1.43, 1.90, 1.62, 7.68, repro,
2011-08-09,3.03, -0.59, 0.67, 1.89, 1.63, 7.71, repro,
2011-08-10,2.24, -1.31, 3.58, 1.90, 1.63, 7.64, repro,
2011-08-11,1.96, -1.61, 4.99, 2.05, 1.69, 8.14, repro,
2011-08-12,1.81, -3.13, 2.31, 2.01, 1.70, 8.11, repro,
2011-08-13,0.28, -1.92, -0.93, 1.91, 1.64, 7.69, repro,
2011-08-14,0.26, -1.35, 1.14, 1.92, 1.64, 7.69, repro,
2011-08-15,2.51, -1.89, 2.94, 1.90, 1.63, 7.65, repro,
2011-08-16,1.29, -1.92, 0.77, 1.93, 1.64, 7.76, repro,
2011-08-17,1.92, 0.13, -2.55, 1.90, 1.63, 7.66, repro,
2011-08-18,1.29, -2.07, -9.71, 1.89, 1.61, 7.60, repro,
2011-08-19,1.31, -2.72, -1.19, 1.89, 1.63, 7.65, repro,
2011-08-20,1.34, -3.12, 5.99, 1.88, 1.61, 7.60, repro,
2011-08-21,0.97, -3.05, 1.45, 1.93, 1.65, 7.79, repro,
2011-08-22,3.07, -2.35, 4.46, 1.91, 1.64, 7.74, repro,
2011-08-23,1.24, -2.57, 3.28, 1.97, 1.73, 7.94, repro,
2011-08-24,3.23, -2.57, 4.44, 1.88, 1.63, 7.65, repro,
2011-08-25,0.86, -2.49, 4.40, 1.89, 1.66, 7.74, repro,
2011-08-26,2.03, -3.73, 8.39, 2.02, 1.73, 8.19, repro,
2011-08-27,-1.28, -4.04, 5.89, 1.99, 1.73, 7.99, repro,
2011-08-28,1.18, -3.86, 13.87, 1.98, 1.74, 8.14, repro,
2011-08-29,1.51, -2.30, 4.06, 1.92, 1.67, 7.83, repro,
2011-08-30,2.15, -3.40, 7.05, 1.97, 1.68, 8.01, repro,
2011-08-31,0.81, -2.77, 3.35, 1.99, 1.74, 8.23, repro,
2011-09-01,2.75, -1.34, 4.02, 1.98, 1.68, 8.22, repro,
2011-09-02,1.20, -0.98, 6.33, 1.98, 1.66, 8.17, repro,
2011-09-03,1.90, -3.05, 1.26, 1.90, 1.64, 7.73, repro,
2011-09-04,2.18, -2.38, 8.22, 1.89, 1.65, 7.72, repro,
2011-09-05,0.90, -3.21, 3.62, 1.93, 1.70, 7.83, repro,
2011-09-06,0.65, -2.60, 0.33, 1.97, 1.67, 7.91, repro,
2011-09-07,0.02, -1.47, -1.81, 2.19, 1.85, 8.78, repro,
2011-09-08,2.31, -2.82, 4.77, 2.03, 1.79, 8.47, repro,
2011-09-09,1.63, -1.77, -0.30, 1.90, 1.66, 7.75, repro,
2011-09-10,1.91, -2.80, 3.82, 1.91, 1.67, 7.77, repro,
2011-09-11,2.33, -2.05, -3.72, 1.99, 1.79, 8.14, repro,
2011-09-12,1.08, -2.74, -0.97, 1.96, 1.72, 7.96, repro,
2011-09-13,-1.69, -2.49, 3.58, 1.92, 1.66, 7.80, repro,
2011-09-14,0.37, -3.18, 0.50, 1.90, 1.65, 7.69, repro,
2011-09-15,2.12, -2.59, 11.53, 1.96, 1.66, 7.99, repro,
2011-09-16,2.66, -3.56, 7.29, 1.93, 1.69, 7.76, repro,
2011-09-17,1.56, -3.54, 7.39, 1.92, 1.70, 7.80, repro,
2011-09-18,2.56, -3.60, -2.58, 1.93, 1.67, 7.77, repro,
2011-09-19,2.05, -5.54, -1.65, 1.95, 1.71, 7.90, repro,
2011-09-20,0.77, -4.01, 4.42, 2.08, 1.77, 8.55, repro,
2011-09-21,1.92, -3.21, 6.29, 1.92, 1.68, 7.71, repro,
2011-09-22,2.16, -4.75, 1.09, 1.92, 1.68, 7.76, repro,
2011-09-23,0.92, -2.32, 6.44, 2.03, 1.86, 8.17, repro,
2011-09-24,-1.25, -5.37, 6.15, 1.89, 1.64, 7.70, repro,
2011-09-25,2.28, -2.87, 2.65, 1.89, 1.64, 7.70, repro,
2011-09-26,1.72, -0.60, 5.48, 1.97, 1.71, 7.95, repro,
2011-09-27,-0.88, -4.45, 10.53, 1.92, 1.70, 7.81, repro,
2011-09-28,1.23, -4.16, 3.64, 1.97, 1.71, 7.84, repro,
2011-09-29,0.81, -3.21, 1.51, 1.96, 1.71, 7.82, repro,
2011-09-30,2.41, -2.50, 1.30, 2.01, 1.75, 7.96, repro,
2011-10-01,1.77, -1.92, -2.05, 2.03, 1.77, 8.08, repro,
2011-10-02,-1.24, -3.79, 3.98, 2.08, 1.79, 8.26, repro,
2011-10-03,1.62, -4.89, 4.33, 2.01, 1.76, 7.96, repro,
2011-10-04,0.37, -2.52, 1.33, 1.96, 1.69, 7.75, repro,
2011-10-05,0.48, -3.44, 3.84, 1.92, 1.65, 7.66, repro,
2011-10-06,1.21, -4.71, 3.23, 1.97, 1.71, 7.81, repro,
2011-10-07,3.35, -4.68, 1.43, 1.94, 1.68, 7.76, repro,
2011-10-08,1.88, -3.71, 2.29, 1.96, 1.71, 7.81, repro,
2011-10-09,1.91, -4.28, 4.35, 1.96, 1.70, 7.82, repro,
2011-10-10,2.20, -3.73, 3.27, 1.92, 1.65, 7.70, repro,
2011-10-11,2.05, -2.49, 5.26, 1.95, 1.70, 7.82, repro,
2011-10-12,1.42, -3.81, 1.47, 1.97, 1.72, 7.93, repro,
2011-10-13,1.64, -3.35, 0.58, 1.97, 1.72, 7.86, repro,
2011-10-14,2.65, -2.99, 3.81, 1.94, 1.73, 7.81, repro,
2011-10-15,3.30, -1.35, 0.10, 1.92, 1.65, 7.66, repro,
2011-10-16,3.07, -1.47, 0.38, 1.92, 1.64, 7.70, repro,
2011-10-17,2.31, -1.24, -0.96, 1.90, 1.62, 7.65, repro,
2011-10-18,1.17, -2.52, 1.07, 1.93, 1.68, 7.78, repro,
2011-10-19,1.30, -2.97, 5.50, 1.97, 1.71, 7.82, repro,
2011-10-20,0.20, -2.99, 6.77, 1.96, 1.69, 7.78, repro,
2011-10-21,1.28, -3.91, -1.96, 1.89, 1.60, 7.54, repro,
2011-10-22,-1.27, -4.79, -2.60, 1.89, 1.60, 7.56, repro,
2011-10-23,0.03, -3.60, 2.39, 1.89, 1.62, 7.59, repro,
2011-10-24,1.91, -2.96, -1.24, 1.89, 1.62, 7.59, repro,
2011-10-25,0.28, -2.49, -7.44, 1.89, 1.61, 7.57, repro,
2011-10-26,2.62, -2.84, -0.30, 1.87, 1.59, 7.46, repro,
2011-10-27,1.78, -2.93, 2.18, 1.88, 1.60, 7.51, repro,
2011-10-28,2.15, -2.09, 2.50, 1.93, 1.65, 7.66, repro,
2011-10-29,2.08, -1.94, 2.21, 1.89, 1.61, 7.52, repro,
2011-10-30,1.45, -3.17, 0.54, 1.89, 1.60, 7.52, repro,
2011-10-31,1.91, -2.31, 3.51, 1.89, 1.59, 7.47, repro,